Satellite: NOAA-14
Catalog number: 23455
Epoch time: 09035.82566943
Element set: 0502
Inclination: 098.9214 deg
RA of node: 113.9143 deg
Eccentricity: 0.0009307
Arg of perigee: 201.0515 deg
Mean anomaly: 159.0261 deg
Mean motion: 14.13758364 rev/day
Decay rate: 2.28e-06 rev/day^2
Epoch rev: 72722
Checksum: 287
Satellite: NOAA-15
Catalog number: 25338
Epoch time: 09035.67424500
Element set: 0805
Inclination: 098.5761 deg
RA of node: 027.8542 deg
Eccentricity: 0.0011666
Arg of perigee: 084.8532 deg
Mean anomaly: 275.3971 deg
Mean motion: 14.24743491 rev/day
Decay rate: -1.13e-06 rev/day^2
Epoch rev: 55790
Checksum: 314
Satellite: RESURS
Catalog number: 25394
Epoch time: 09035.65749381
Element set: 0151
Inclination: 098.3584 deg
RA of node: 074.6441 deg
Eccentricity: 0.0000604
Arg of perigee: 229.2881 deg
Mean anomaly: 130.8244 deg
Mean motion: 14.24179816 rev/day
Decay rate: -3.7e-07 rev/day^2
Epoch rev: 54953
Checksum: 307
Satellite: FENGYUN1
Catalog number: 25730
Epoch time: 09035.95909389
Element set: 0682
Inclination: 098.7441 deg
RA of node: 010.1469 deg
Eccentricity: 0.0021676
Arg of perigee: 231.4688 deg
Mean anomaly: 128.4539 deg
Mean motion: 14.07921090 rev/day
Decay rate: 1.52e-06 rev/day^2
Epoch rev: 50171
Checksum: 307
Satellite: OKEAN-0
Catalog number: 25860
Epoch time: 09035.55544770
Element set: 592
Inclination: 097.7732 deg
RA of node: 022.1056 deg
Eccentricity: 0.0000492
Arg of perigee: 076.9618 deg
Mean anomaly: 283.1640 deg
Mean motion: 14.73556929 rev/day
Decay rate: 2.2e-07 rev/day^2
Epoch rev: 51361
Checksum: 300
Satellite: NOAA-16
Catalog number: 26536
Epoch time: 09035.68965001
Element set: 0279
Inclination: 099.1753 deg
RA of node: 036.1683 deg
Eccentricity: 0.0009772
Arg of perigee: 294.8425 deg
Mean anomaly: 065.1730 deg
Mean motion: 14.12510524 rev/day
Decay rate: 2.63e-06 rev/day^2
Epoch rev: 43159
Checksum: 309
Satellite: NOAA-17
Catalog number: 27453
Epoch time: 09035.76745302
Element set: 0289
Inclination: 098.5041 deg
RA of node: 099.2943 deg
Eccentricity: 0.0012284
Arg of perigee: 146.5665 deg
Mean anomaly: 213.6293 deg
Mean motion: 14.24038727 rev/day
Decay rate: 1.36e-06 rev/day^2
Epoch rev: 34390
Checksum: 315
Satellite: NOAA-18
Catalog number: 28654
Epoch time: 09035.82112904
Element set: 0774
Inclination: 098.8946 deg
RA of node: 340.1789 deg
Eccentricity: 0.0014596
Arg of perigee: 020.3126 deg
Mean anomaly: 339.8621 deg
Mean motion: 14.11232421 rev/day
Decay rate: 3.86e-06 rev/day^2
Epoch rev: 19128
Checksum: 312
/EX
SB KEPS @ AMSAT $ORB09036.M
Orbital Elements 09036.MISC
HR AMSAT ORBITAL ELEMENTS FOR MANNED AND MISCELLANEOUS SATELLITES
FROM WA5QGD FORT WORTH,TX February 5, 2009
Send Subscribe/unsubscribe to KEPS at
http://www.amsat.org/mailman/listinfo/keps
BID: ORB09036.M
TO ALL RADIO AMATEURS BT
Satellite: HUBBLE
Catalog number: 20580
Epoch time: 09035.88828546
Element set: 0326
Inclination: 028.4693 deg
RA of node: 245.4123 deg
Eccentricity: 0.0003486
Arg of perigee: 334.9013 deg
Mean anomaly: 025.1409 deg
Mean motion: 15.00452231 rev/day
Decay rate: 2.95e-06 rev/day^2
Epoch rev: 82996
Checksum: 292
Satellite: PO-34
Catalog number: 25520
Epoch time: 09035.39188473
Element set: 178
Inclination: 028.4603 deg
RA of node: 064.0759 deg
Eccentricity: 0.0005268
Arg of perigee: 291.9781 deg
Mean anomaly: 068.0255 deg
Mean motion: 15.17291850 rev/day
Decay rate: 3.82e-06 rev/day^2
Epoch rev: 56846
Checksum: 326
Satellite: ISS
Catalog number: 25544
Epoch time: 09036.79339567
Element set: 213
Inclination: 051.6417 deg
RA of node: 259.7073 deg
Eccentricity: 0.0008114
Arg of perigee: 353.1459 deg
Mean anomaly: 086.5146 deg
Mean motion: 15.70764581 rev/day
Decay rate: 6.377e-05 rev/day^2
Epoch rev: 58528
Checksum: 327
Satellite: CO-58
Catalog number: 28895
Epoch time: 09035.70294023
Element set: 225
Inclination: 098.0773 deg
RA of node: 289.9067 deg
Eccentricity: 0.0018655
Arg of perigee: 045.9914 deg
Mean anomaly: 314.2834 deg
Mean motion: 14.59738521 rev/day
Decay rate: -1.6e-07 rev/day^2
Epoch rev: 17440
Checksum: 335
Satellite: FALCON
Catalog number: 30776
Epoch time: 09035.79354431
Element set: 0504
Inclination: 035.4325 deg
RA of node: 182.6160 deg
Eccentricity: 0.0001546
Arg of perigee: 272.9360 deg
Mean anomaly: 087.1179 deg
Mean motion: 15.03159962 rev/day
Decay rate: 2.33e-06 rev/day^2
Epoch rev: 10516
Checksum: 280
Satellite: MAST
Catalog number: 31126
Epoch time: 09035.65361233
Element set: 0522
Inclination: 098.0076 deg
RA of node: 096.4108 deg
Eccentricity: 0.0094476
Arg of perigee: 331.7994 deg
Mean anomaly: 027.8101 deg
Mean motion: 14.53474857 rev/day
Decay rate: -1.07e-06 rev/day^2
Epoch rev: 09578
Checksum: 306
Satellite: CAPE1
Catalog number: 31130
Epoch time: 09035.14760800
Element set: 0525
Inclination: 098.0112 deg
RA of node: 094.4089 deg
Eccentricity: 0.0102459
Arg of perigee: 338.0108 deg
Mean anomaly: 021.6710 deg
Mean motion: 14.52030833 rev/day
Decay rate: 1.13e-06 rev/day^2
Epoch rev: 09538
Checksum: 248
Satellite: COMPASS
Catalog number: 32787
Epoch time: 09035.39216793
Element set: 0283
Inclination: 097.9612 deg
RA of node: 100.2400 deg
Eccentricity: 0.0017040
Arg of perigee: 102.8836 deg
Mean anomaly: 257.4284 deg
Mean motion: 14.81541317 rev/day
Decay rate: 3.1e-07 rev/day^2
Epoch rev: 04178
Checksum: 279
Satellite: AAUSAT2
Catalog number: 32788
Epoch time: 09036.18128558
Element set: 273
Inclination: 097.9616 deg
RA of node: 101.0625 deg
Eccentricity: 0.0016801
Arg of perigee: 101.5160 deg
Mean anomaly: 258.7927 deg
Mean motion: 14.81661338 rev/day
Decay rate: 1.35e-06 rev/day^2
Epoch rev: 4190
Checksum: 294
Satellite: DO-64
Catalog number: 32789
Epoch time: 09035.86212517
Element set: 283
Inclination: 097.9648 deg
RA of node: 100.8325 deg
Eccentricity: 0.0016694
Arg of perigee: 100.9123 deg
Mean anomaly: 259.3966 deg
Mean motion: 14.81604515 rev/day
Decay rate: 7.9e-07 rev/day^2
Epoch rev: 4185
Checksum: 325
Satellite: CO-66
Catalog number: 32791
Epoch time: 09036.83868719
Element set: 265
Inclination: 097.9631 deg
RA of node: 101.7055 deg
Eccentricity: 0.0017281
Arg of perigee: 096.7436 deg
Mean anomaly: 263.5747 deg
Mean motion: 14.81383478 rev/day
Decay rate: 5.7e-07 rev/day^2
Epoch rev: 4196
Checksum: 347
Satellite: RS-30
Catalog number: 32953
Epoch time: 09035.78423382
Element set: 0225
Inclination: 082.5060 deg
RA of node: 338.9475 deg
Eccentricity: 0.0020071
Arg of perigee: 105.3362 deg
Mean anomaly: 254.9939 deg
Mean motion: 12.42999683 rev/day
Decay rate: 1.0e-07 rev/day^2
Epoch rev: 03194
Checksum: 301
/EX
More information about the Keps
mailing list